Location: Hurstbourne Priors
(51.2000°N, 1.3667°W)
Time: 12:56:09
(UTC+00:00)

Meteor 2-1 Rocket - Pass Details

Date: 09 April 2020
Orbit: 828 x 908 km, 81.3° (Epoch: 02 June)

Event Time Altitude Azimuth Distance (km) Brightness Sun altitude
Exits shadow 21:23:24 14° 197° (SSW) 2,308 6.2 -21.1°
Maximum altitude 21:28:35 77° 283° (WNW) 935 4.4 -21.7°
Drops below altitude 10° 21:34:33 10° 10° (N) 2,606 7.2 -22.3°
Sets 21:37:03 0° 12° (NNE) 3,549 8.0 -22.6°
